Year,Month,Day,Hour,Minute,Value (Times are PST for temperature in C)
2016,03,29,00,00,6.80
2016,03,29,00,01,6.80
2016,03,29,00,02,6.70
2016,03,29,00,03,6.70
2016,03,29,00,04,6.70
2016,03,29,00,05,6.70
2016,03,29,00,06,6.70
2016,03,29,00,07,6.70
2016,03,29,00,08,6.70
2016,03,29,00,09,6.70
2016,03,29,00,10,6.70
2016,03,29,00,11,6.70
2016,03,29,00,12,6.70
2016,03,29,00,13,6.70
2016,03,29,00,14,6.70
2016,03,29,00,15,6.60
2016,03,29,00,16,6.60
2016,03,29,00,17,6.60
2016,03,29,00,18,6.60
2016,03,29,00,19,6.60
2016,03,29,00,20,6.60
2016,03,29,00,21,6.60
2016,03,29,00,22,6.60
2016,03,29,00,23,6.60
2016,03,29,00,24,6.60
2016,03,29,00,25,6.60
2016,03,29,00,26,6.60
2016,03,29,00,27,6.60
2016,03,29,00,28,6.60
2016,03,29,00,29,6.60
2016,03,29,00,30,6.60
2016,03,29,00,31,6.60
2016,03,29,00,32,6.60
2016,03,29,00,33,6.60
2016,03,29,00,34,6.60
2016,03,29,00,35,6.60
2016,03,29,00,36,6.60
2016,03,29,00,37,6.60
2016,03,29,00,38,6.60
2016,03,29,00,39,6.60
2016,03,29,00,40,6.60
2016,03,29,00,41,6.60
2016,03,29,00,42,6.60
2016,03,29,00,43,6.60
2016,03,29,00,44,6.70
2016,03,29,00,45,6.60
2016,03,29,00,46,6.60
2016,03,29,00,47,6.60
2016,03,29,00,48,6.60
2016,03,29,00,49,6.60
2016,03,29,00,50,6.60
2016,03,29,00,51,6.60
2016,03,29,00,52,6.60
2016,03,29,00,53,6.60
2016,03,29,00,54,6.60
2016,03,29,00,55,6.60
2016,03,29,00,56,6.60
2016,03,29,00,57,6.60
2016,03,29,00,58,6.60
2016,03,29,00,59,6.60
2016,03,29,01,00,6.60
2016,03,29,01,01,6.60
2016,03,29,01,02,6.60
2016,03,29,01,03,6.60
2016,03,29,01,04,6.60
2016,03,29,01,05,6.60
2016,03,29,01,06,6.60
2016,03,29,01,07,6.60
2016,03,29,01,08,6.60
2016,03,29,01,09,6.60
2016,03,29,01,10,6.60
2016,03,29,01,11,6.60
2016,03,29,01,12,6.60
2016,03,29,01,13,6.60
2016,03,29,01,14,6.60
2016,03,29,01,15,6.50
2016,03,29,01,16,6.50
2016,03,29,01,17,6.50
2016,03,29,01,18,6.50
2016,03,29,01,19,6.50
2016,03,29,01,20,6.50
2016,03,29,01,21,6.50
2016,03,29,01,22,6.50
2016,03,29,01,23,6.50
2016,03,29,01,24,6.40
2016,03,29,01,25,6.40
2016,03,29,01,26,6.40
2016,03,29,01,27,6.40
2016,03,29,01,28,6.40
2016,03,29,01,29,6.40
2016,03,29,01,30,6.40
2016,03,29,01,31,6.40
2016,03,29,01,32,6.40
2016,03,29,01,33,6.40
2016,03,29,01,34,6.40
2016,03,29,01,35,6.40
2016,03,29,01,36,6.40
2016,03,29,01,37,6.40
2016,03,29,01,38,6.40
2016,03,29,01,39,6.40
2016,03,29,01,40,6.30
2016,03,29,01,41,6.30
2016,03,29,01,42,6.30
2016,03,29,01,43,6.40
2016,03,29,01,44,6.30
2016,03,29,01,45,6.40
2016,03,29,01,46,6.40
2016,03,29,01,47,6.40
2016,03,29,01,48,6.40
2016,03,29,01,49,6.40
2016,03,29,01,50,6.50
2016,03,29,01,51,6.50
2016,03,29,01,52,6.60
2016,03,29,01,53,6.60
2016,03,29,01,54,6.60
2016,03,29,01,55,6.60
2016,03,29,01,56,6.70
2016,03,29,01,57,6.70
2016,03,29,01,58,6.70
2016,03,29,01,59,6.70
2016,03,29,02,00,6.80
2016,03,29,02,01,6.80
2016,03,29,02,02,6.80
2016,03,29,02,03,6.80
2016,03,29,02,04,6.80
2016,03,29,02,05,6.80
2016,03,29,02,06,6.90
2016,03,29,02,07,6.90
2016,03,29,02,08,6.90
2016,03,29,02,09,6.90
2016,03,29,02,10,6.90
2016,03,29,02,11,6.80
2016,03,29,02,12,6.80
2016,03,29,02,13,6.80
2016,03,29,02,14,6.80
2016,03,29,02,15,6.70
2016,03,29,02,16,6.70
2016,03,29,02,17,6.60
2016,03,29,02,18,6.50
2016,03,29,02,19,6.50
2016,03,29,02,20,6.40
2016,03,29,02,21,6.30
2016,03,29,02,22,6.30
2016,03,29,02,23,6.20
2016,03,29,02,24,6.10
2016,03,29,02,25,6.00
2016,03,29,02,26,6.00
2016,03,29,02,27,5.90
2016,03,29,02,28,5.80
2016,03,29,02,29,5.80
2016,03,29,02,30,5.70
2016,03,29,02,31,5.70
2016,03,29,02,32,5.60
2016,03,29,02,33,5.60
2016,03,29,02,34,5.60
2016,03,29,02,35,5.70
2016,03,29,02,36,5.70
2016,03,29,02,37,5.70
2016,03,29,02,38,5.80
2016,03,29,02,39,5.90
2016,03,29,02,40,6.00
2016,03,29,02,41,6.10
2016,03,29,02,42,6.20
2016,03,29,02,43,6.30
2016,03,29,02,44,6.40
2016,03,29,02,45,6.50
2016,03,29,02,46,6.70
2016,03,29,02,47,6.80
2016,03,29,02,48,6.90
2016,03,29,02,49,7.00
2016,03,29,02,50,7.10
2016,03,29,02,51,7.20
2016,03,29,02,52,7.30
2016,03,29,02,53,7.40
2016,03,29,02,54,7.50
2016,03,29,02,55,7.60
2016,03,29,02,56,7.60
2016,03,29,02,57,7.70
2016,03,29,02,58,7.80
2016,03,29,02,59,7.80
2016,03,29,03,00,7.80
2016,03,29,03,01,7.90
2016,03,29,03,02,7.90
2016,03,29,03,03,7.90
2016,03,29,03,04,7.90
2016,03,29,03,05,8.00
2016,03,29,03,06,8.00
2016,03,29,03,07,8.00
2016,03,29,03,08,8.00
2016,03,29,03,09,8.10
2016,03,29,03,10,8.10
2016,03,29,03,11,8.10
2016,03,29,03,12,8.10
2016,03,29,03,13,8.10
2016,03,29,03,14,8.10
2016,03,29,03,15,8.10
2016,03,29,03,16,8.20
2016,03,29,03,17,8.20
2016,03,29,03,18,8.20
2016,03,29,03,19,8.20
2016,03,29,03,20,8.20
2016,03,29,03,21,8.20
2016,03,29,03,22,8.20
2016,03,29,03,23,8.30
2016,03,29,03,24,8.30
2016,03,29,03,25,8.30
2016,03,29,03,26,8.30
2016,03,29,03,27,8.30
2016,03,29,03,28,8.30
2016,03,29,03,29,8.30
2016,03,29,03,30,8.30
2016,03,29,03,31,8.30
2016,03,29,03,32,8.40
2016,03,29,03,33,8.40
2016,03,29,03,34,8.40
2016,03,29,03,35,8.40
2016,03,29,03,36,8.40
2016,03,29,03,37,8.40
2016,03,29,03,38,8.40
2016,03,29,03,39,8.40
2016,03,29,03,40,8.50
2016,03,29,03,41,8.50
2016,03,29,03,42,8.50
2016,03,29,03,43,8.50
2016,03,29,03,44,8.60
2016,03,29,03,45,8.60
2016,03,29,03,46,8.60
2016,03,29,03,47,8.60
2016,03,29,03,48,8.60
2016,03,29,03,49,8.60
2016,03,29,03,50,8.60
2016,03,29,03,51,8.60
2016,03,29,03,52,8.70
2016,03,29,03,53,8.70
2016,03,29,03,54,8.70
2016,03,29,03,55,8.70
2016,03,29,03,56,8.70
2016,03,29,03,57,8.70
2016,03,29,03,58,8.70
2016,03,29,03,59,8.70
2016,03,29,04,00,8.70
2016,03,29,04,01,8.70
2016,03,29,04,02,8.70
2016,03,29,04,03,8.70
2016,03,29,04,04,8.70
2016,03,29,04,05,8.70
2016,03,29,04,06,8.70
2016,03,29,04,07,8.70
2016,03,29,04,08,8.70
2016,03,29,04,09,8.70
2016,03,29,04,10,8.70
2016,03,29,04,11,8.70
2016,03,29,04,12,8.70
2016,03,29,04,13,8.70
2016,03,29,04,14,8.70
2016,03,29,04,15,8.60
2016,03,29,04,16,8.60
2016,03,29,04,17,8.60
2016,03,29,04,18,8.60
2016,03,29,04,19,8.50
2016,03,29,04,20,8.50
2016,03,29,04,21,8.40
2016,03,29,04,22,8.40
2016,03,29,04,23,8.40
2016,03,29,04,24,8.30
2016,03,29,04,25,8.30
2016,03,29,04,26,8.20
2016,03,29,04,27,8.20
2016,03,29,04,28,8.20
2016,03,29,04,29,8.10
2016,03,29,04,30,8.10
2016,03,29,04,31,8.10
2016,03,29,04,32,8.10
2016,03,29,04,33,8.00
2016,03,29,04,34,8.00
2016,03,29,04,35,8.00
2016,03,29,04,36,8.00
2016,03,29,04,37,7.90
2016,03,29,04,38,7.90
2016,03,29,04,39,7.90
2016,03,29,04,40,7.90
2016,03,29,04,41,7.80
2016,03,29,04,42,7.80
2016,03,29,04,43,7.80
2016,03,29,04,44,7.80
2016,03,29,04,45,7.80
2016,03,29,04,46,7.80
2016,03,29,04,47,7.80
2016,03,29,04,48,7.80
2016,03,29,04,49,7.80
2016,03,29,04,50,7.80
2016,03,29,04,51,7.80
2016,03,29,04,52,7.80
2016,03,29,04,53,7.80
2016,03,29,04,54,7.80
2016,03,29,04,55,7.80
2016,03,29,04,56,7.80
2016,03,29,04,57,7.80
2016,03,29,04,58,7.80
2016,03,29,04,59,7.80
2016,03,29,05,00,7.80
2016,03,29,05,01,7.80
2016,03,29,05,02,7.80
2016,03,29,05,03,7.80
2016,03,29,05,04,7.80
2016,03,29,05,05,7.80
2016,03,29,05,06,7.80
2016,03,29,05,07,7.80
2016,03,29,05,08,7.80
2016,03,29,05,09,7.80
2016,03,29,05,10,7.80
2016,03,29,05,11,7.80
2016,03,29,05,12,7.80
2016,03,29,05,13,7.80
2016,03,29,05,14,7.80
2016,03,29,05,15,7.80
2016,03,29,05,16,7.80
2016,03,29,05,17,7.80
2016,03,29,05,18,7.70
2016,03,29,05,19,7.70
2016,03,29,05,20,7.70
2016,03,29,05,21,7.70
2016,03,29,05,22,7.70
2016,03,29,05,23,7.70
2016,03,29,05,24,7.70
2016,03,29,05,25,7.70
2016,03,29,05,26,7.70
2016,03,29,05,27,7.70
2016,03,29,05,28,7.70
2016,03,29,05,29,7.70
2016,03,29,05,30,7.70
2016,03,29,05,31,7.70
2016,03,29,05,32,7.60
2016,03,29,05,33,7.60
2016,03,29,05,34,7.60
2016,03,29,05,35,7.60
2016,03,29,05,36,7.60
2016,03,29,05,37,7.60
2016,03,29,05,38,7.60
2016,03,29,05,39,7.60
2016,03,29,05,40,7.60
2016,03,29,05,41,7.60
2016,03,29,05,42,7.70
2016,03,29,05,43,7.70
2016,03,29,05,44,7.70
2016,03,29,05,45,7.70
2016,03,29,05,46,7.70
2016,03,29,05,47,7.70
2016,03,29,05,48,7.70
2016,03,29,05,49,7.70
2016,03,29,05,50,7.70
2016,03,29,05,51,7.70
2016,03,29,05,52,7.70
2016,03,29,05,53,7.70
2016,03,29,05,54,7.80
2016,03,29,05,55,7.80
2016,03,29,05,56,7.80
2016,03,29,05,57,7.80
2016,03,29,05,58,7.80
2016,03,29,05,59,7.80
2016,03,29,06,00,7.80
2016,03,29,06,01,7.80
2016,03,29,06,02,7.80
2016,03,29,06,03,7.80
2016,03,29,06,04,7.80
2016,03,29,06,05,7.80
2016,03,29,06,06,7.90
2016,03,29,06,07,7.90
2016,03,29,06,08,7.90
2016,03,29,06,09,7.90
2016,03,29,06,10,7.90
2016,03,29,06,11,7.90
2016,03,29,06,12,7.90
2016,03,29,06,13,7.90
2016,03,29,06,14,7.90
2016,03,29,06,15,7.90
2016,03,29,06,16,8.00
2016,03,29,06,17,8.00
2016,03,29,06,18,8.00
2016,03,29,06,19,8.00
2016,03,29,06,20,8.00
2016,03,29,06,21,8.10
2016,03,29,06,22,8.10
2016,03,29,06,23,8.10
2016,03,29,06,24,8.10
2016,03,29,06,25,8.10
2016,03,29,06,26,8.10
2016,03,29,06,27,8.10
2016,03,29,06,28,8.10
2016,03,29,06,29,8.00
2016,03,29,06,30,8.00
2016,03,29,06,31,8.00
2016,03,29,06,32,8.00
2016,03,29,06,33,8.00
2016,03,29,06,34,8.00
2016,03,29,06,35,8.00
2016,03,29,06,36,7.90
2016,03,29,06,37,7.90
2016,03,29,06,38,7.90
2016,03,29,06,39,7.90
2016,03,29,06,40,7.90
2016,03,29,06,41,7.90
2016,03,29,06,42,7.90
2016,03,29,06,43,7.90
2016,03,29,06,44,7.90
2016,03,29,06,45,7.80
2016,03,29,06,46,7.80
2016,03,29,06,47,7.80
2016,03,29,06,48,7.80
2016,03,29,06,49,7.80
2016,03,29,06,50,7.80
2016,03,29,06,51,7.70
2016,03,29,06,52,7.70
2016,03,29,06,53,7.70
2016,03,29,06,54,7.70
2016,03,29,06,55,7.60
2016,03,29,06,56,7.60
2016,03,29,06,57,7.60
2016,03,29,06,58,7.50
2016,03,29,06,59,7.50
2016,03,29,07,00,7.40
2016,03,29,07,01,7.40
2016,03,29,07,02,7.40
2016,03,29,07,03,7.30
2016,03,29,07,04,7.30
2016,03,29,07,05,7.30
2016,03,29,07,06,7.30
2016,03,29,07,07,7.20
2016,03,29,07,08,7.20
2016,03,29,07,09,7.10
2016,03,29,07,10,7.10
2016,03,29,07,11,7.10
2016,03,29,07,12,7.00
2016,03,29,07,13,7.00
2016,03,29,07,14,6.90
2016,03,29,07,15,6.90
2016,03,29,07,16,6.90
2016,03,29,07,17,6.80
2016,03,29,07,18,6.80
2016,03,29,07,19,6.80
2016,03,29,07,20,6.80
2016,03,29,07,21,6.70
2016,03,29,07,22,6.70
2016,03,29,07,23,6.70
2016,03,29,07,24,6.70
2016,03,29,07,25,6.70
2016,03,29,07,26,6.70
2016,03,29,07,27,6.70
2016,03,29,07,28,6.60
2016,03,29,07,29,6.60
2016,03,29,07,30,6.60
2016,03,29,07,31,6.60
2016,03,29,07,32,6.60
2016,03,29,07,33,6.60
2016,03,29,07,34,6.60
2016,03,29,07,35,6.60
2016,03,29,07,36,6.60
2016,03,29,07,37,6.50
2016,03,29,07,38,6.60
2016,03,29,07,39,6.60
2016,03,29,07,40,6.60
2016,03,29,07,41,6.60
2016,03,29,07,42,6.60
2016,03,29,07,43,6.60
2016,03,29,07,44,6.60
2016,03,29,07,45,6.60
2016,03,29,07,46,6.60
2016,03,29,07,47,6.60
2016,03,29,07,48,6.70
2016,03,29,07,49,6.70
2016,03,29,07,50,6.70
2016,03,29,07,51,6.80
2016,03,29,07,52,6.80
2016,03,29,07,53,6.80
2016,03,29,07,54,6.90
2016,03,29,07,55,6.90
2016,03,29,07,56,7.00
2016,03,29,07,57,7.00
2016,03,29,07,58,7.10
2016,03,29,07,59,7.10
2016,03,29,08,00,7.20
2016,03,29,08,01,7.30
2016,03,29,08,02,7.30
2016,03,29,08,03,7.40
2016,03,29,08,04,7.50
2016,03,29,08,05,7.50
2016,03,29,08,06,7.60
2016,03,29,08,07,7.70
2016,03,29,08,08,7.70
2016,03,29,08,09,7.80
2016,03,29,08,10,7.90
2016,03,29,08,11,7.90
2016,03,29,08,12,8.00
2016,03,29,08,13,8.00
2016,03,29,08,14,8.10
2016,03,29,08,15,8.10
2016,03,29,08,16,8.20
2016,03,29,08,17,8.20
2016,03,29,08,18,8.20
2016,03,29,08,19,8.20
2016,03,29,08,20,8.30
2016,03,29,08,21,8.30
2016,03,29,08,22,8.30
2016,03,29,08,23,8.40
2016,03,29,08,24,8.40
2016,03,29,08,25,8.40
2016,03,29,08,26,8.50
2016,03,29,08,27,8.50
2016,03,29,08,28,8.60
2016,03,29,08,29,8.60
2016,03,29,08,30,8.60
2016,03,29,08,31,8.60
2016,03,29,08,32,8.60
2016,03,29,08,33,8.70
2016,03,29,08,34,8.70
2016,03,29,08,35,8.70
2016,03,29,08,36,8.70
2016,03,29,08,37,8.70
2016,03,29,08,38,8.70
2016,03,29,08,39,8.70
2016,03,29,08,40,8.70
2016,03,29,08,41,8.70
2016,03,29,08,42,8.80
2016,03,29,08,43,8.80
2016,03,29,08,44,8.80
2016,03,29,08,45,8.80
2016,03,29,08,46,8.80
2016,03,29,08,47,8.80
2016,03,29,08,48,8.80
2016,03,29,08,49,8.80
2016,03,29,08,50,8.90
2016,03,29,08,51,8.90
2016,03,29,08,52,8.90
2016,03,29,08,53,9.00
2016,03,29,08,54,9.00
2016,03,29,08,55,9.00
2016,03,29,08,56,9.10
2016,03,29,08,57,9.10
2016,03,29,08,58,9.20
2016,03,29,08,59,9.20
2016,03,29,09,00,9.20
2016,03,29,09,01,9.20
2016,03,29,09,02,9.20
2016,03,29,09,03,9.30
2016,03,29,09,04,9.30
2016,03,29,09,05,9.30
2016,03,29,09,06,9.30
2016,03,29,09,07,9.30
2016,03,29,09,08,9.30
2016,03,29,09,09,9.40
2016,03,29,09,10,9.40
2016,03,29,09,11,9.40
2016,03,29,09,12,9.50
2016,03,29,09,13,9.50
2016,03,29,09,14,9.60
2016,03,29,09,15,9.60
2016,03,29,09,16,9.60
2016,03,29,09,17,9.60
2016,03,29,09,18,9.60
2016,03,29,09,19,9.60
2016,03,29,09,20,9.60
2016,03,29,09,21,9.60
2016,03,29,09,22,9.60
2016,03,29,09,23,9.60
2016,03,29,09,24,9.60
2016,03,29,09,25,9.60
2016,03,29,09,26,9.60
2016,03,29,09,27,9.60
2016,03,29,09,28,9.60
2016,03,29,09,29,9.70
2016,03,29,09,30,9.70
2016,03,29,09,31,9.70
2016,03,29,09,32,9.70
2016,03,29,09,33,9.70
2016,03,29,09,34,9.70
2016,03,29,09,35,9.70
2016,03,29,09,36,9.70
2016,03,29,09,37,9.70
2016,03,29,09,38,9.80
2016,03,29,09,39,9.80
2016,03,29,09,40,9.80
2016,03,29,09,41,9.80
2016,03,29,09,42,9.80
2016,03,29,09,43,9.80
2016,03,29,09,44,9.80
2016,03,29,09,45,9.80
2016,03,29,09,46,9.80
2016,03,29,09,47,9.80
2016,03,29,09,48,9.80
2016,03,29,09,49,9.80
2016,03,29,09,50,9.80
2016,03,29,09,51,9.80
2016,03,29,09,52,9.80
2016,03,29,09,53,9.80
2016,03,29,09,54,9.80
2016,03,29,09,55,9.80
2016,03,29,09,56,9.80
2016,03,29,09,57,9.80
2016,03,29,09,58,9.80
2016,03,29,09,59,9.80
2016,03,29,10,00,9.90
2016,03,29,10,01,9.90
2016,03,29,10,02,9.90
2016,03,29,10,03,10.00
2016,03,29,10,04,10.00
2016,03,29,10,05,10.10
2016,03,29,10,06,10.10
2016,03,29,10,07,10.10
2016,03,29,10,08,10.20
2016,03,29,10,09,10.20
2016,03,29,10,10,10.20
2016,03,29,10,11,10.20
2016,03,29,10,12,10.30
2016,03,29,10,13,10.30
2016,03,29,10,14,10.30
2016,03,29,10,15,10.30
2016,03,29,10,16,10.30
2016,03,29,10,17,10.30
2016,03,29,10,18,10.30
2016,03,29,10,19,10.30
2016,03,29,10,20,10.40
2016,03,29,10,21,10.40
2016,03,29,10,22,10.40
2016,03,29,10,23,10.40
2016,03,29,10,24,10.50
2016,03,29,10,25,10.50
2016,03,29,10,26,10.60
2016,03,29,10,27,10.60
2016,03,29,10,28,10.60
2016,03,29,10,29,10.60
2016,03,29,10,30,10.60
2016,03,29,10,31,10.70
2016,03,29,10,32,10.70
2016,03,29,10,33,10.70
2016,03,29,10,34,10.80
2016,03,29,10,35,10.80
2016,03,29,10,36,10.90
2016,03,29,10,37,10.90
2016,03,29,10,38,10.90
2016,03,29,10,39,10.90
2016,03,29,10,40,11.00
2016,03,29,10,41,11.00
2016,03,29,10,42,11.00
2016,03,29,10,43,10.90
2016,03,29,10,44,10.90
2016,03,29,10,45,10.90
2016,03,29,10,46,10.90
2016,03,29,10,47,10.90
2016,03,29,10,48,10.90
2016,03,29,10,49,10.90
2016,03,29,10,50,10.90
2016,03,29,10,51,10.90
2016,03,29,10,52,10.90
2016,03,29,10,53,10.90
2016,03,29,10,54,10.90
2016,03,29,10,55,11.00
2016,03,29,10,56,11.00
2016,03,29,10,57,11.00
2016,03,29,10,58,11.10
2016,03,29,10,59,11.10
2016,03,29,11,00,11.10
2016,03,29,11,01,11.20
2016,03,29,11,02,11.30
2016,03,29,11,03,11.30
2016,03,29,11,04,11.40
2016,03,29,11,05,11.40
2016,03,29,11,06,11.50
2016,03,29,11,07,11.50
2016,03,29,11,08,11.60
2016,03,29,11,09,11.70
2016,03,29,11,10,11.80
2016,03,29,11,11,11.80
2016,03,29,11,12,11.90
2016,03,29,11,13,11.90
2016,03,29,11,14,12.00
2016,03,29,11,15,12.00
2016,03,29,11,16,12.10
2016,03,29,11,17,12.10
2016,03,29,11,18,12.10
2016,03,29,11,19,12.10
2016,03,29,11,20,12.20
2016,03,29,11,21,12.20
2016,03,29,11,22,12.20
2016,03,29,11,23,12.30
2016,03,29,11,24,12.30
2016,03,29,11,25,12.40
2016,03,29,11,26,12.40
2016,03,29,11,27,12.40
2016,03,29,11,28,12.40
2016,03,29,11,29,12.50
2016,03,29,11,30,12.50
2016,03,29,11,31,12.50
2016,03,29,11,32,12.50
2016,03,29,11,33,12.50
2016,03,29,11,34,12.50
2016,03,29,11,35,12.50
2016,03,29,11,36,12.50
2016,03,29,11,37,12.50
2016,03,29,11,38,12.60
2016,03,29,11,39,12.60
2016,03,29,11,40,12.60
2016,03,29,11,41,12.60
2016,03,29,11,42,12.60
2016,03,29,11,43,12.60
2016,03,29,11,44,12.60
2016,03,29,11,45,12.50
2016,03,29,11,46,12.50
2016,03,29,11,47,12.50
2016,03,29,11,48,12.50
2016,03,29,11,49,12.40
2016,03,29,11,50,12.40
2016,03,29,11,51,12.40
2016,03,29,11,52,12.40
2016,03,29,11,53,12.40
2016,03,29,11,54,12.40
2016,03,29,11,55,12.50
2016,03,29,11,56,12.50
2016,03,29,11,57,12.60
2016,03,29,11,58,12.60
2016,03,29,11,59,12.60
2016,03,29,12,00,12.50
2016,03,29,12,01,12.50
2016,03,29,12,02,12.40
2016,03,29,12,03,12.30
2016,03,29,12,04,12.30
2016,03,29,12,05,12.20
2016,03,29,12,06,12.20
2016,03,29,12,07,12.20
2016,03,29,12,08,12.20
2016,03,29,12,09,12.20
2016,03,29,12,10,12.20
2016,03,29,12,11,12.20
2016,03,29,12,12,12.30
2016,03,29,12,13,12.30
2016,03,29,12,14,12.30
2016,03,29,12,15,12.30
2016,03,29,12,16,12.30
2016,03,29,12,17,12.30
2016,03,29,12,18,12.40
2016,03,29,12,19,12.40
2016,03,29,12,20,12.40
2016,03,29,12,21,12.40
2016,03,29,12,22,12.40
2016,03,29,12,23,12.50
2016,03,29,12,24,12.50
2016,03,29,12,25,12.60
2016,03,29,12,26,12.60
2016,03,29,12,27,12.60
2016,03,29,12,28,12.60
2016,03,29,12,29,12.60
2016,03,29,12,30,12.70
2016,03,29,12,31,12.70
2016,03,29,12,32,12.70
2016,03,29,12,33,12.80
2016,03,29,12,34,12.80
2016,03,29,12,35,12.80
2016,03,29,12,36,12.80
2016,03,29,12,37,12.90
2016,03,29,12,38,13.00
2016,03,29,12,39,13.00
2016,03,29,12,40,13.00
2016,03,29,12,41,13.00
2016,03,29,12,42,13.00
2016,03,29,12,43,13.00
2016,03,29,12,44,13.10
2016,03,29,12,45,13.10
2016,03,29,12,46,13.10
2016,03,29,12,47,13.10
2016,03,29,12,48,13.00
2016,03,29,12,49,13.00
2016,03,29,12,50,13.00
2016,03,29,12,51,12.90
2016,03,29,12,52,12.90
2016,03,29,12,53,12.90
2016,03,29,12,54,12.90
2016,03,29,12,55,12.90
2016,03,29,12,56,12.90
2016,03,29,12,57,12.90
2016,03,29,12,58,12.90
2016,03,29,12,59,13.00
2016,03,29,13,00,13.00
2016,03,29,13,01,13.00
2016,03,29,13,02,13.10
2016,03,29,13,03,13.20
2016,03,29,13,04,13.20
2016,03,29,13,05,13.30
2016,03,29,13,06,13.30
2016,03,29,13,07,13.30
2016,03,29,13,08,13.40
2016,03,29,13,09,13.40
2016,03,29,13,10,13.40
2016,03,29,13,11,13.50
2016,03,29,13,12,13.50
2016,03,29,13,13,13.50
2016,03,29,13,14,13.50
2016,03,29,13,15,13.60
2016,03,29,13,16,13.60
2016,03,29,13,17,13.60
2016,03,29,13,18,13.60
2016,03,29,13,19,13.60
2016,03,29,13,20,13.60
2016,03,29,13,21,13.70
2016,03,29,13,22,13.70
2016,03,29,13,23,13.80
2016,03,29,13,24,13.90
2016,03,29,13,25,14.00
2016,03,29,13,26,14.10
2016,03,29,13,27,14.20
2016,03,29,13,28,14.30
2016,03,29,13,29,14.30
2016,03,29,13,30,14.40
2016,03,29,13,31,14.50
2016,03,29,13,32,14.60
2016,03,29,13,33,14.60
2016,03,29,13,34,14.50
2016,03,29,13,35,14.50
2016,03,29,13,36,14.50
2016,03,29,13,37,14.40
2016,03,29,13,38,14.40
2016,03,29,13,39,14.40
2016,03,29,13,40,14.50
2016,03,29,13,41,14.50
2016,03,29,13,42,14.50
2016,03,29,13,43,14.60
2016,03,29,13,44,14.50
2016,03,29,13,45,14.50
2016,03,29,13,46,14.50
2016,03,29,13,47,14.40
2016,03,29,13,48,14.40
2016,03,29,13,49,14.40
2016,03,29,13,50,14.40
2016,03,29,13,51,14.40
2016,03,29,13,52,14.30
2016,03,29,13,53,14.30
2016,03,29,13,54,14.30
2016,03,29,13,55,14.30
2016,03,29,13,56,14.30
2016,03,29,13,57,14.30
2016,03,29,13,58,14.30
2016,03,29,13,59,14.30
2016,03,29,14,00,14.30
2016,03,29,14,01,14.30
2016,03,29,14,02,14.30
2016,03,29,14,03,14.30
2016,03,29,14,04,14.40
2016,03,29,14,05,14.40
2016,03,29,14,06,14.40
2016,03,29,14,07,14.50
2016,03,29,14,08,14.50
2016,03,29,14,09,14.60
2016,03,29,14,10,14.60
2016,03,29,14,11,14.60
2016,03,29,14,12,14.60
2016,03,29,14,13,14.70
2016,03,29,14,14,14.70
2016,03,29,14,15,14.80
2016,03,29,14,16,14.80
2016,03,29,14,17,14.80
2016,03,29,14,18,14.80
2016,03,29,14,19,14.80
2016,03,29,14,20,14.80
2016,03,29,14,21,14.90
2016,03,29,14,22,14.90
2016,03,29,14,23,15.00
2016,03,29,14,24,15.00
2016,03,29,14,25,15.10
2016,03,29,14,26,15.10
2016,03,29,14,27,15.10
2016,03,29,14,28,15.20
2016,03,29,14,29,15.10
2016,03,29,14,30,15.10
2016,03,29,14,31,15.10
2016,03,29,14,32,15.10
2016,03,29,14,33,15.00
2016,03,29,14,34,15.00
2016,03,29,14,35,15.00
2016,03,29,14,36,15.00
2016,03,29,14,37,14.90
2016,03,29,14,38,14.90
2016,03,29,14,39,14.90
2016,03,29,14,40,14.80
2016,03,29,14,41,14.80
2016,03,29,14,42,14.70
2016,03,29,14,43,14.70
2016,03,29,14,44,14.60
2016,03,29,14,45,14.60
2016,03,29,14,46,14.60
2016,03,29,14,47,14.60
2016,03,29,14,48,14.60
2016,03,29,14,49,14.60
2016,03,29,14,50,14.60
2016,03,29,14,51,14.60
2016,03,29,14,52,14.60
2016,03,29,14,53,14.50
2016,03,29,14,54,14.50
2016,03,29,14,55,14.50
2016,03,29,14,56,14.50
2016,03,29,14,57,14.50
2016,03,29,14,58,14.50
2016,03,29,14,59,14.60
2016,03,29,15,00,14.60
2016,03,29,15,01,14.60
2016,03,29,15,02,14.60
2016,03,29,15,03,14.60
2016,03,29,15,04,14.60
2016,03,29,15,05,14.70
2016,03,29,15,06,14.70
2016,03,29,15,07,14.70
2016,03,29,15,08,14.70
2016,03,29,15,09,14.70
2016,03,29,15,10,14.70
2016,03,29,15,11,14.70
2016,03,29,15,12,14.70
2016,03,29,15,13,14.60
2016,03,29,15,14,14.60
2016,03,29,15,15,14.60
2016,03,29,15,16,14.60
2016,03,29,15,17,14.70
2016,03,29,15,18,14.70
2016,03,29,15,19,14.70
2016,03,29,15,20,14.70
2016,03,29,15,21,14.80
2016,03,29,15,22,14.80
2016,03,29,15,23,14.80
2016,03,29,15,24,14.80
2016,03,29,15,25,14.80
2016,03,29,15,26,14.70
2016,03,29,15,27,14.70
2016,03,29,15,28,14.70
2016,03,29,15,29,14.70
2016,03,29,15,30,14.60
2016,03,29,15,31,14.60
2016,03,29,15,32,14.60
2016,03,29,15,33,14.60
2016,03,29,15,34,14.60
2016,03,29,15,35,14.60
2016,03,29,15,36,14.60
2016,03,29,15,37,14.60
2016,03,29,15,38,14.60
2016,03,29,15,39,14.60
2016,03,29,15,40,14.60
2016,03,29,15,41,14.70
2016,03,29,15,42,14.70
2016,03,29,15,43,14.70
2016,03,29,15,44,14.70
2016,03,29,15,45,14.70
2016,03,29,15,46,14.70
2016,03,29,15,47,14.70
2016,03,29,15,48,14.60
2016,03,29,15,49,14.60
2016,03,29,15,50,14.60
2016,03,29,15,51,14.60
2016,03,29,15,52,14.60
2016,03,29,15,53,14.60
2016,03,29,15,54,14.60
2016,03,29,15,55,14.60
2016,03,29,15,56,14.70
2016,03,29,15,57,14.70
2016,03,29,15,58,14.80
2016,03,29,15,59,14.80
2016,03,29,16,00,14.80
2016,03,29,16,01,14.80
2016,03,29,16,02,14.90
2016,03,29,16,03,14.80
2016,03,29,16,04,14.80
2016,03,29,16,05,14.80
2016,03,29,16,06,14.80
2016,03,29,16,07,14.80
2016,03,29,16,08,14.80
2016,03,29,16,09,14.80
2016,03,29,16,10,14.90
2016,03,29,16,11,14.90
2016,03,29,16,12,14.90
2016,03,29,16,13,15.00
2016,03,29,16,14,15.00
2016,03,29,16,15,15.10
2016,03,29,16,16,15.10
2016,03,29,16,17,15.20
2016,03,29,16,18,15.20
2016,03,29,16,19,15.20
2016,03,29,16,20,15.20
2016,03,29,16,21,15.20
2016,03,29,16,22,15.20
2016,03,29,16,23,15.20
2016,03,29,16,24,15.20
2016,03,29,16,25,15.20
2016,03,29,16,26,15.30
2016,03,29,16,27,15.30
2016,03,29,16,28,15.40
2016,03,29,16,29,15.50
2016,03,29,16,30,15.50
2016,03,29,16,31,15.60
2016,03,29,16,32,15.60
2016,03,29,16,33,15.70
2016,03,29,16,34,15.80
2016,03,29,16,35,15.80
2016,03,29,16,36,15.90
2016,03,29,16,37,16.00
2016,03,29,16,38,16.10
2016,03,29,16,39,16.10
2016,03,29,16,40,16.20
2016,03,29,16,41,16.20
2016,03,29,16,42,16.20
2016,03,29,16,43,16.20
2016,03,29,16,44,16.30
2016,03,29,16,45,16.30
2016,03,29,16,46,16.30
2016,03,29,16,47,16.30
2016,03,29,16,48,16.30
2016,03,29,16,49,16.30
2016,03,29,16,50,16.30
2016,03,29,16,51,16.40
2016,03,29,16,52,16.50
2016,03,29,16,53,16.50
2016,03,29,16,54,16.60
2016,03,29,16,55,16.60
2016,03,29,16,56,16.60
2016,03,29,16,57,16.70
2016,03,29,16,58,16.70
2016,03,29,16,59,16.70
2016,03,29,17,00,16.70
2016,03,29,17,01,16.70
2016,03,29,17,02,16.70
2016,03,29,17,03,16.70
2016,03,29,17,04,16.70
2016,03,29,17,05,16.70
2016,03,29,17,06,16.70
2016,03,29,17,07,16.70
2016,03,29,17,08,16.80
2016,03,29,17,09,16.80
2016,03,29,17,10,16.80
2016,03,29,17,11,16.80
2016,03,29,17,12,16.80
2016,03,29,17,13,16.80
2016,03,29,17,14,16.80
2016,03,29,17,15,16.80
2016,03,29,17,16,16.80
2016,03,29,17,17,16.80
2016,03,29,17,18,16.80
2016,03,29,17,19,16.80
2016,03,29,17,20,16.80
2016,03,29,17,21,16.80
2016,03,29,17,22,16.90
2016,03,29,17,23,16.90
2016,03,29,17,24,16.90
2016,03,29,17,25,16.90
2016,03,29,17,26,16.90
2016,03,29,17,27,16.90
2016,03,29,17,28,16.80
2016,03,29,17,29,16.80
2016,03,29,17,30,16.80
2016,03,29,17,31,16.80
2016,03,29,17,32,16.80
2016,03,29,17,33,16.80
2016,03,29,17,34,16.70
2016,03,29,17,35,16.70
2016,03,29,17,36,16.70
2016,03,29,17,37,16.80
2016,03,29,17,38,16.80
2016,03,29,17,39,16.80
2016,03,29,17,40,16.70
2016,03,29,17,41,16.70
2016,03,29,17,42,16.70
2016,03,29,17,43,16.70
2016,03,29,17,44,16.70
2016,03,29,17,45,16.70